PRIVATE WETTERSTATION BILLIGHEIM-ALLFELD                       ZURCK
Wetterdaten: Sonntag, 21.12.2014
Datum Zeit Temp. A. Temp. A. min Temp. A. max Feuchte A. Luftdruck Regen Wind Richtung Richtung Sonnenschein ET Solar Taupunkt Windchill Windben Empfang
21.12.2014 00:00 3,6 C 3,6 C 3,7 C 92 % 1028,2 hPa 0,6 l/m 6,4 km/h (2 Bft) NW 315 0 min 0,025 mm 0 W/m 2,4 C 3,6 C 16,1 km/h (3 Bft) 100 %
21.12.2014 00:10 3,6 C 3,5 C 3,6 C 92 % 1028,5 hPa 0,4 l/m 6,4 km/h (2 Bft) NW 315 0 min 0,000 mm 0 W/m 2,4 C 3,6 C 19,3 km/h (3 Bft) 99 %
21.12.2014 00:20 3,4 C 3,4 C 3,6 C 92 % 1028,5 hPa 0,6 l/m 6,4 km/h (2 Bft) NW 315 0 min 0,000 mm 0 W/m 2,2 C 3,4 C 17,7 km/h (3 Bft) 100 %
21.12.2014 00:30 3,3 C 3,3 C 3,4 C 92 % 1028,7 hPa 0,2 l/m 9,7 km/h (2 Bft) W-NW 292 0 min 0,000 mm 0 W/m 2,1 C 0,4 C 22,5 km/h (4 Bft) 100 %
21.12.2014 00:40 3,3 C 3,3 C 3,4 C 92 % 1028,6 hPa 0,6 l/m 12,9 km/h (3 Bft) W-NW 292 0 min 0,000 mm 0 W/m 2,1 C -1,8 C 25,7 km/h (4 Bft) 100 %
21.12.2014 00:50 3,3 C 3,3 C 3,3 C 92 % 1028,7 hPa 0,0 l/m 12,9 km/h (3 Bft) NW 315 0 min 0,000 mm 0 W/m 2,1 C -1,8 C 25,7 km/h (4 Bft) 99 %
21.12.2014 01:00 3,3 C 3,2 C 3,3 C 92 % 1029,0 hPa 0,2 l/m 11,3 km/h (2 Bft) W-NW 292 0 min 0,000 mm 0 W/m 2,1 C -0,7 C 25,7 km/h (4 Bft) 100 %
21.12.2014 01:10 3,3 C 3,2 C 3,3 C 92 % 1029,2 hPa 0,0 l/m 12,9 km/h (3 Bft) W-NW 292 0 min 0,000 mm 0 W/m 2,1 C -1,8 C 25,7 km/h (4 Bft) 100 %
21.12.2014 01:20 3,3 C 3,3 C 3,3 C 92 % 1029,0 hPa 0,4 l/m 11,3 km/h (2 Bft) W-NW 292 0 min 0,000 mm 0 W/m 2,1 C -0,7 C 24,1 km/h (4 Bft) 100 %
21.12.2014 01:30 3,3 C 3,3 C 3,3 C 92 % 1029,0 hPa 0,2 l/m 11,3 km/h (2 Bft) W-NW 292 0 min 0,000 mm 0 W/m 2,1 C -0,7 C 22,5 km/h (4 Bft) 100 %
21.12.2014 01:40 3,2 C 3,2 C 3,3 C 92 % 1029,0 hPa 0,0 l/m 9,7 km/h (2 Bft) W-NW 292 0 min 0,000 mm 0 W/m 2,0 C 0,3 C 25,7 km/h (4 Bft) 100 %
21.12.2014 01:50 3,0 C 3,0 C 3,2 C 92 % 1029,3 hPa 0,0 l/m 8,0 km/h (2 Bft) W-NW 292 0 min 0,000 mm 0 W/m 1,8 C 1,5 C 17,7 km/h (3 Bft) 100 %
21.12.2014 02:00 2,9 C 2,9 C 3,0 C 92 % 1029,3 hPa 0,0 l/m 3,2 km/h (1 Bft) W-NW 292 0 min 0,000 mm 0 W/m 1,7 C 2,9 C 11,3 km/h (2 Bft) 100 %
21.12.2014 02:10 2,8 C 2,8 C 2,9 C 92 % 1029,4 hPa 0,0 l/m 1,6 km/h (1 Bft) W 270 0 min 0,000 mm 0 W/m 1,6 C 2,8 C 8,0 km/h (2 Bft) 100 %
21.12.2014 02:20 2,8 C 2,7 C 2,8 C 92 % 1029,6 hPa 0,0 l/m 1,6 km/h (1 Bft) W 270 0 min 0,000 mm 0 W/m 1,6 C 2,8 C 8,0 km/h (2 Bft) 100 %
21.12.2014 02:30 2,8 C 2,7 C 2,8 C 92 % 1029,7 hPa 0,0 l/m 0,0 km/h (0 Bft) W 270 0 min 0,000 mm 0 W/m 1,6 C 2,8 C 4,8 km/h (1 Bft) 100 %
21.12.2014 02:40 2,8 C 2,7 C 2,8 C 92 % 1029,8 hPa 0,0 l/m 3,2 km/h (1 Bft) W-SW 247 0 min 0,000 mm 0 W/m 1,6 C 2,8 C 8,0 km/h (2 Bft) 100 %
21.12.2014 02:50 2,9 C 2,8 C 2,9 C 92 % 1030,0 hPa 0,0 l/m 4,8 km/h (1 Bft) W-SW 247 0 min 0,000 mm 0 W/m 1,7 C 2,9 C 11,3 km/h (2 Bft) 100 %
21.12.2014 03:00 3,1 C 2,9 C 3,1 C 92 % 1030,2 hPa 0,0 l/m 4,8 km/h (1 Bft) W-SW 247 0 min 0,000 mm 0 W/m 1,9 C 3,1 C 9,7 km/h (2 Bft) 100 %
21.12.2014 03:10 3,3 C 3,1 C 3,3 C 92 % 1030,4 hPa 0,0 l/m 4,8 km/h (1 Bft) W-SW 247 0 min 0,000 mm 0 W/m 2,1 C 3,3 C 11,3 km/h (2 Bft) 100 %
21.12.2014 03:20 3,3 C 3,3 C 3,3 C 92 % 1030,5 hPa 0,0 l/m 4,8 km/h (1 Bft) W-SW 247 0 min 0,000 mm 0 W/m 2,1 C 3,3 C 11,3 km/h (2 Bft) 100 %
21.12.2014 03:30 3,2 C 3,2 C 3,3 C 92 % 1030,7 hPa 0,0 l/m 1,6 km/h (1 Bft) W-SW 247 0 min 0,000 mm 0 W/m 2,0 C 3,2 C 8,0 km/h (2 Bft) 100 %
21.12.2014 03:40 3,0 C 3,0 C 3,2 C 92 % 1030,9 hPa 0,0 l/m 0,0 km/h (0 Bft) W-SW 247 0 min 0,000 mm 0 W/m 1,8 C 3,0 C 4,8 km/h (1 Bft) 100 %
21.12.2014 03:50 3,0 C 2,9 C 3,0 C 92 % 1031,0 hPa 0,0 l/m 0,0 km/h (0 Bft) W-SW 247 0 min 0,000 mm 0 W/m 1,8 C 3,0 C 3,2 km/h (1 Bft) 100 %
21.12.2014 04:00 3,2 C 3,0 C 3,2 C 92 % 1031,0 hPa 0,0 l/m 4,8 km/h (1 Bft) W 270 0 min 0,000 mm 0 W/m 2,0 C 3,2 C 11,3 km/h (2 Bft) 90 %
21.12.2014 04:10 3,2 C 3,1 C 3,2 C 92 % 1031,1 hPa 0,0 l/m 3,2 km/h (1 Bft) W-SW 247 0 min 0,000 mm 0 W/m 2,0 C 3,2 C 9,7 km/h (2 Bft) 100 %
21.12.2014 04:20 3,2 C 3,2 C 3,2 C 92 % 1031,3 hPa 0,0 l/m 3,2 km/h (1 Bft) S-SW 202 0 min 0,000 mm 0 W/m 2,0 C 3,2 C 9,7 km/h (2 Bft) 100 %
21.12.2014 04:30 3,2 C 3,2 C 3,2 C 92 % 1031,3 hPa 0,0 l/m 6,4 km/h (2 Bft) SW 225 0 min 0,000 mm 0 W/m 2,0 C 3,2 C 14,5 km/h (3 Bft) 100 %
21.12.2014 04:40 3,3 C 3,2 C 3,3 C 92 % 1031,4 hPa 0,0 l/m 4,8 km/h (1 Bft) SW 225 0 min 0,000 mm 0 W/m 2,1 C 3,3 C 11,3 km/h (2 Bft) 100 %
21.12.2014 04:50 3,2 C 3,2 C 3,3 C 92 % 1031,2 hPa 0,0 l/m 4,8 km/h (1 Bft) SW 225 0 min 0,000 mm 0 W/m 2,0 C 3,2 C 11,3 km/h (2 Bft) 100 %
21.12.2014 05:00 3,2 C 3,2 C 3,2 C 92 % 1031,2 hPa 0,0 l/m 4,8 km/h (1 Bft) SW 225 0 min 0,000 mm 0 W/m 2,0 C 3,2 C 11,3 km/h (2 Bft) 100 %
21.12.2014 05:10 3,1 C 3,1 C 3,2 C 92 % 1031,3 hPa 0,0 l/m 6,4 km/h (2 Bft) SW 225 0 min 0,000 mm 0 W/m 1,9 C 3,1 C 16,1 km/h (3 Bft) 100 %
21.12.2014 05:20 3,1 C 3,1 C 3,1 C 92 % 1031,3 hPa 0,0 l/m 6,4 km/h (2 Bft) W-SW 247 0 min 0,000 mm 0 W/m 1,9 C 3,1 C 19,3 km/h (3 Bft) 100 %
21.12.2014 05:30 3,1 C 3,1 C 3,1 C 92 % 1031,2 hPa 0,0 l/m 6,4 km/h (2 Bft) W-SW 247 0 min 0,000 mm 0 W/m 1,9 C 3,1 C 16,1 km/h (3 Bft) 100 %
21.12.2014 05:40 3,1 C 3,1 C 3,1 C 92 % 1031,2 hPa 0,0 l/m 4,8 km/h (1 Bft) W 270 0 min 0,000 mm 0 W/m 1,9 C 3,1 C 11,3 km/h (2 Bft) 100 %
21.12.2014 05:50 2,9 C 2,9 C 3,1 C 92 % 1031,2 hPa 0,0 l/m 4,8 km/h (1 Bft) SW 225 0 min 0,000 mm 0 W/m 1,7 C 2,9 C 16,1 km/h (3 Bft) 91 %
21.12.2014 06:00 2,8 C 2,8 C 2,9 C 92 % 1031,4 hPa 0,0 l/m 3,2 km/h (1 Bft) SW 225 0 min 0,000 mm 0 W/m 1,6 C 2,8 C 11,3 km/h (2 Bft) 100 %
21.12.2014 06:10 2,9 C 2,8 C 2,9 C 92 % 1031,5 hPa 0,0 l/m 6,4 km/h (2 Bft) W-SW 247 0 min 0,000 mm 0 W/m 1,7 C 2,9 C 14,5 km/h (3 Bft) 100 %
21.12.2014 06:20 2,9 C 2,9 C 2,9 C 92 % 1031,8 hPa 0,0 l/m 3,2 km/h (1 Bft) W-SW 247 0 min 0,000 mm 0 W/m 1,7 C 2,9 C 9,7 km/h (2 Bft) 100 %
21.12.2014 06:30 3,0 C 2,9 C 3,0 C 92 % 1031,8 hPa 0,0 l/m 1,6 km/h (1 Bft) W 270 0 min 0,000 mm 0 W/m 1,8 C 3,0 C 8,0 km/h (2 Bft) 100 %
21.12.2014 06:40 3,0 C 3,0 C 3,0 C 92 % 1031,9 hPa 0,0 l/m 1,6 km/h (1 Bft) W 270 0 min 0,000 mm 0 W/m 1,8 C 3,0 C 8,0 km/h (2 Bft) 100 %
21.12.2014 06:50 3,0 C 3,0 C 3,1 C 92 % 1032,0 hPa 0,0 l/m 1,6 km/h (1 Bft) W-SW 247 0 min 0,000 mm 0 W/m 1,8 C 3,0 C 8,0 km/h (2 Bft) 100 %
21.12.2014 07:00 3,1 C 3,0 C 3,1 C 92 % 1031,9 hPa 0,0 l/m 1,6 km/h (1 Bft) W 270 0 min 0,000 mm 0 W/m 1,9 C 3,1 C 8,0 km/h (2 Bft) 100 %
21.12.2014 07:10 3,1 C 3,0 C 3,1 C 92 % 1032,0 hPa 0,0 l/m 1,6 km/h (1 Bft) W 270 0 min 0,000 mm 0 W/m 1,9 C 3,1 C 6,4 km/h (2 Bft) 100 %
21.12.2014 07:20 3,0 C 3,0 C 3,1 C 92 % 1032,0 hPa 0,0 l/m 3,2 km/h (1 Bft) W-SW 247 0 min 0,000 mm 0 W/m 1,8 C 3,0 C 9,7 km/h (2 Bft) 100 %
21.12.2014 07:30 2,9 C 2,9 C 3,0 C 92 % 1031,8 hPa 0,0 l/m 3,2 km/h (1 Bft) SW 225 0 min 0,000 mm 0 W/m 1,7 C 2,9 C 11,3 km/h (2 Bft) 100 %
21.12.2014 07:40 2,9 C 2,9 C 2,9 C 92 % 1031,8 hPa 0,0 l/m 4,8 km/h (1 Bft) SW 225 0 min 0,000 mm 0 W/m 1,7 C 2,9 C 11,3 km/h (2 Bft) 100 %
21.12.2014 07:50 2,9 C 2,9 C 2,9 C 92 % 1031,8 hPa 0,0 l/m 6,4 km/h (2 Bft) SW 225 0 min 0,000 mm 0 W/m 1,7 C 2,9 C 11,3 km/h (2 Bft) 100 %
21.12.2014 08:00 2,8 C 2,8 C 2,9 C 92 % 1032,0 hPa 0,0 l/m 6,4 km/h (2 Bft) S-SW 202 0 min 0,000 mm 0 W/m 1,6 C 2,8 C 11,3 km/h (2 Bft) 100 %
21.12.2014 08:10 2,8 C 2,8 C 2,8 C 92 % 1032,0 hPa 0,0 l/m 6,4 km/h (2 Bft) S-SW 202 0 min 0,000 mm 0 W/m 1,6 C 2,8 C 11,3 km/h (2 Bft) 100 %
21.12.2014 08:20 2,6 C 2,6 C 2,8 C 92 % 1032,1 hPa 0,0 l/m 4,8 km/h (1 Bft) S-SW 202 0 min 0,000 mm 0 W/m 1,4 C 2,6 C 9,7 km/h (2 Bft) 100 %
21.12.2014 08:30 2,5 C 2,5 C 2,6 C 92 % 1032,2 hPa 0,0 l/m 1,6 km/h (1 Bft) S-SW 202 0 min 0,000 mm 7 W/m 1,3 C 2,5 C 8,0 km/h (2 Bft) 99 %
21.12.2014 08:40 2,4 C 2,4 C 2,5 C 92 % 1032,2 hPa 0,0 l/m 3,2 km/h (1 Bft) SW 225 0 min 0,000 mm 9 W/m 1,2 C 2,4 C 11,3 km/h (2 Bft) 100 %
21.12.2014 08:50 2,4 C 2,4 C 2,4 C 92 % 1032,2 hPa 0,0 l/m 4,8 km/h (1 Bft) SW 225 0 min 0,000 mm 11 W/m 1,2 C 2,4 C 14,5 km/h (3 Bft) 100 %
21.12.2014 09:00 2,6 C 2,4 C 2,6 C 92 % 1032,2 hPa 0,0 l/m 6,4 km/h (2 Bft) SW 225 0 min 0,000 mm 32 W/m 1,4 C 2,6 C 16,1 km/h (3 Bft) 100 %
21.12.2014 09:10 2,8 C 2,6 C 2,8 C 92 % 1032,2 hPa 0,0 l/m 6,4 km/h (2 Bft) W-SW 247 0 min 0,000 mm 77 W/m 1,6 C 2,8 C 17,7 km/h (3 Bft) 91 %
21.12.2014 09:20 3,2 C 2,8 C 3,2 C 92 % 1032,4 hPa 0,0 l/m 6,4 km/h (2 Bft) W-SW 247 0 min 0,000 mm 102 W/m 2,0 C 3,2 C 17,7 km/h (3 Bft) 100 %
21.12.2014 09:30 3,4 C 3,2 C 3,4 C 92 % 1032,5 hPa 0,0 l/m 8,0 km/h (2 Bft) W-SW 247 0 min 0,000 mm 98 W/m 2,2 C 1,9 C 19,3 km/h (3 Bft) 100 %
21.12.2014 09:40 3,5 C 3,4 C 3,5 C 92 % 1032,5 hPa 0,0 l/m 6,4 km/h (2 Bft) W-SW 247 0 min 0,000 mm 62 W/m 2,3 C 3,5 C 20,9 km/h (4 Bft) 100 %
21.12.2014 09:50 3,6 C 3,5 C 3,6 C 92 % 1032,5 hPa 0,0 l/m 6,4 km/h (2 Bft) SW 225 0 min 0,000 mm 107 W/m 2,4 C 3,6 C 16,1 km/h (3 Bft) 100 %
21.12.2014 10:00 3,8 C 3,6 C 3,8 C 92 % 1032,8 hPa 0,0 l/m 8,0 km/h (2 Bft) W-SW 247 0 min 0,025 mm 128 W/m 2,6 C 2,3 C 22,5 km/h (4 Bft) 100 %
21.12.2014 10:10 3,9 C 3,8 C 3,9 C 92 % 1032,9 hPa 0,0 l/m 6,4 km/h (2 Bft) W-SW 247 0 min 0,000 mm 88 W/m 2,7 C 3,9 C 17,7 km/h (3 Bft) 100 %
21.12.2014 10:20 4,1 C 3,9 C 4,1 C 92 % 1033,1 hPa 0,0 l/m 8,0 km/h (2 Bft) W-SW 247 0 min 0,000 mm 72 W/m 2,9 C 2,7 C 17,7 km/h (3 Bft) 100 %
21.12.2014 10:30 4,2 C 4,1 C 4,2 C 92 % 1033,0 hPa 0,0 l/m 6,4 km/h (2 Bft) W-SW 247 0 min 0,000 mm 84 W/m 3,0 C 4,2 C 11,3 km/h (2 Bft) 100 %
21.12.2014 10:40 4,3 C 4,2 C 4,3 C 92 % 1033,0 hPa 0,0 l/m 4,8 km/h (1 Bft) W-SW 247 0 min 0,000 mm 91 W/m 3,1 C 4,3 C 14,5 km/h (3 Bft) 100 %
21.12.2014 10:50 4,4 C 4,3 C 4,4 C 92 % 1033,0 hPa 0,0 l/m 6,4 km/h (2 Bft) W 270 0 min 0,000 mm 72 W/m 3,2 C 4,4 C 19,3 km/h (3 Bft) 100 %
21.12.2014 11:00 4,5 C 4,4 C 4,5 C 92 % 1032,8 hPa 0,0 l/m 6,4 km/h (2 Bft) SW 225 0 min 0,025 mm 121 W/m 3,3 C 4,5 C 14,5 km/h (3 Bft) 99 %
21.12.2014 11:10 4,6 C 4,5 C 4,6 C 92 % 1032,7 hPa 0,0 l/m 4,8 km/h (1 Bft) W-SW 247 0 min 0,000 mm 86 W/m 3,4 C 4,6 C 17,7 km/h (3 Bft) 100 %
21.12.2014 11:20 4,6 C 4,6 C 4,6 C 92 % 1032,7 hPa 0,0 l/m 6,4 km/h (2 Bft) W-SW 247 0 min 0,000 mm 77 W/m 3,4 C 4,6 C 17,7 km/h (3 Bft) 100 %
21.12.2014 11:30 4,7 C 4,6 C 4,7 C 92 % 1032,5 hPa 0,0 l/m 8,0 km/h (2 Bft) SW 225 0 min 0,000 mm 74 W/m 3,5 C 3,3 C 20,9 km/h (4 Bft) 100 %
21.12.2014 11:40 4,7 C 4,6 C 4,7 C 92 % 1032,6 hPa 0,0 l/m 9,7 km/h (2 Bft) SW 225 0 min 0,000 mm 67 W/m 3,5 C 2,0 C 22,5 km/h (4 Bft) 99 %
21.12.2014 11:50 4,7 C 4,7 C 4,7 C 91 % 1032,5 hPa 0,0 l/m 11,3 km/h (2 Bft) SW 225 0 min 0,000 mm 70 W/m 3,4 C 0,9 C 25,7 km/h (4 Bft) 100 %
21.12.2014 12:00 4,8 C 4,7 C 4,8 C 91 % 1032,5 hPa 0,0 l/m 9,7 km/h (2 Bft) SW 225 0 min 0,025 mm 79 W/m 3,5 C 2,1 C 20,9 km/h (4 Bft) 100 %
21.12.2014 12:10 4,8 C 4,8 C 4,8 C 91 % 1032,7 hPa 0,0 l/m 9,7 km/h (2 Bft) W-SW 247 0 min 0,000 mm 79 W/m 3,5 C 2,1 C 20,9 km/h (4 Bft) 100 %
21.12.2014 12:20 4,9 C 4,8 C 4,9 C 91 % 1032,4 hPa 0,0 l/m 6,4 km/h (2 Bft) W-SW 247 0 min 0,000 mm 58 W/m 3,6 C 4,9 C 17,7 km/h (3 Bft) 100 %
21.12.2014 12:30 5,0 C 4,9 C 5,0 C 91 % 1032,5 hPa 0,0 l/m 8,0 km/h (2 Bft) SW 225 0 min 0,000 mm 88 W/m 3,7 C 3,6 C 19,3 km/h (3 Bft) 100 %
21.12.2014 12:40 5,1 C 5,0 C 5,1 C 96 % 1032,3 hPa 0,0 l/m 12,9 km/h (3 Bft) W-SW 247 0 min 0,000 mm 95 W/m 4,5 C 0,3 C 29,0 km/h (5 Bft) 100 %
21.12.2014 12:50 5,1 C 5,1 C 5,1 C 90 % 1032,2 hPa 0,0 l/m 11,3 km/h (2 Bft) SW 225 0 min 0,000 mm 76 W/m 3,6 C 1,3 C 25,7 km/h (4 Bft) 100 %
21.12.2014 13:00 5,2 C 5,1 C 5,2 C 90 % 1032,1 hPa 0,0 l/m 14,5 km/h (3 Bft) SW 225 0 min 0,025 mm 81 W/m 3,7 C -0,4 C 32,2 km/h (5 Bft) 100 %
21.12.2014 13:10 5,2 C 5,2 C 5,2 C 89 % 1032,2 hPa 0,0 l/m 11,3 km/h (2 Bft) SW 225 0 min 0,000 mm 70 W/m 3,5 C 1,4 C 24,1 km/h (4 Bft) 91 %
21.12.2014 13:20 5,1 C 5,1 C 5,2 C 89 % 1032,0 hPa 0,0 l/m 11,3 km/h (2 Bft) W-SW 247 0 min 0,000 mm 63 W/m 3,4 C 1,3 C 27,4 km/h (4 Bft) 93 %
21.12.2014 13:30 5,1 C 5,1 C 5,2 C 89 % 1031,8 hPa 0,0 l/m 12,9 km/h (3 Bft) SW 225 0 min 0,000 mm 104 W/m 3,4 C 0,3 C 27,4 km/h (4 Bft) 98 %
21.12.2014 13:40 5,2 C 5,1 C 5,2 C 88 % 1031,7 hPa 0,0 l/m 12,9 km/h (3 Bft) SW 225 0 min 0,000 mm 104 W/m 3,4 C 0,5 C 27,4 km/h (4 Bft) 98 %
21.12.2014 13:50 5,2 C 5,2 C 5,2 C 89 % 1031,7 hPa 0,0 l/m 8,0 km/h (2 Bft) W-SW 247 0 min 0,000 mm 102 W/m 3,5 C 3,8 C 19,3 km/h (3 Bft) 97 %
21.12.2014 14:00 5,3 C 5,2 C 5,3 C 88 % 1031,5 hPa 0,0 l/m 8,0 km/h (2 Bft) W-SW 247 0 min 0,025 mm 67 W/m 3,5 C 3,9 C 24,1 km/h (4 Bft) 98 %
21.12.2014 14:10 5,3 C 5,3 C 5,3 C 88 % 1031,3 hPa 0,0 l/m 11,3 km/h (2 Bft) W-SW 247 0 min 0,000 mm 60 W/m 3,5 C 1,5 C 22,5 km/h (4 Bft) 97 %
21.12.2014 14:20 5,2 C 5,2 C 5,3 C 87 % 1031,3 hPa 0,0 l/m 12,9 km/h (3 Bft) W-SW 247 0 min 0,000 mm 40 W/m 3,2 C 0,5 C 27,4 km/h (4 Bft) 98 %
21.12.2014 14:30 5,2 C 5,2 C 5,2 C 87 % 1031,2 hPa 0,0 l/m 11,3 km/h (2 Bft) W-SW 247 0 min 0,000 mm 46 W/m 3,2 C 1,4 C 24,1 km/h (4 Bft) 97 %
21.12.2014 14:40 5,3 C 5,2 C 5,3 C 87 % 1031,1 hPa 0,0 l/m 14,5 km/h (3 Bft) W-SW 247 0 min 0,000 mm 30 W/m 3,3 C -0,3 C 32,2 km/h (5 Bft) 98 %
21.12.2014 14:50 5,3 C 5,3 C 5,3 C 86 % 1031,0 hPa 0,0 l/m 14,5 km/h (3 Bft) W-SW 247 0 min 0,000 mm 37 W/m 3,2 C -0,3 C 29,0 km/h (5 Bft) 97 %
21.12.2014 15:00 5,4 C 5,3 C 5,4 C 86 % 1031,2 hPa 0,0 l/m 11,3 km/h (2 Bft) W 270 0 min 0,025 mm 74 W/m 3,3 C 1,7 C 24,1 km/h (4 Bft) 97 %
21.12.2014 15:10 5,5 C 5,4 C 5,5 C 84 % 1031,0 hPa 0,0 l/m 17,7 km/h (3 Bft) W-SW 247 0 min 0,000 mm 69 W/m 3,0 C -1,6 C 32,2 km/h (5 Bft) 98 %
21.12.2014 15:20 5,6 C 5,5 C 5,6 C 84 % 1031,1 hPa 0,0 l/m 16,1 km/h (3 Bft) W 270 0 min 0,000 mm 65 W/m 3,1 C -0,7 C 27,4 km/h (4 Bft) 97 %
21.12.2014 15:30 5,6 C 5,6 C 5,6 C 84 % 1031,2 hPa 0,0 l/m 12,9 km/h (3 Bft) W-SW 247 0 min 0,000 mm 51 W/m 3,1 C 0,9 C 25,7 km/h (4 Bft) 87 %
21.12.2014 15:40 5,6 C 5,6 C 5,6 C 84 % 1031,0 hPa 0,0 l/m 11,3 km/h (2 Bft) W 270 0 min 0,000 mm 25 W/m 3,1 C 1,9 C 20,9 km/h (4 Bft) 97 %
21.12.2014 15:50 5,6 C 5,6 C 5,6 C 84 % 1030,9 hPa 0,0 l/m 11,3 km/h (2 Bft) W-SW 247 0 min 0,000 mm 19 W/m 3,1 C 1,9 C 25,7 km/h (4 Bft) 97 %
21.12.2014 16:00 5,5 C 5,5 C 5,6 C 84 % 1031,1 hPa 0,0 l/m 9,7 km/h (2 Bft) SW 225 0 min 0,025 mm 11 W/m 3,0 C 2,8 C 19,3 km/h (3 Bft) 98 %
21.12.2014 16:10 5,4 C 5,4 C 5,6 C 85 % 1031,1 hPa 0,0 l/m 9,9 km/h (2 Bft) SW 223 0 min 0,000 mm 5 W/m 3,1 C 2,6 C 24,1 km/h (4 Bft) 99 %
21.12.2014 16:20 5,4 C 5,4 C 5,4 C 85 % 1030,9 hPa 0,0 l/m 9,6 km/h (2 Bft) W-SW 242 0 min 0,000 mm 0 W/m 3,1 C 2,8 C 20,9 km/h (4 Bft) 100 %
21.12.2014 16:30 5,4 C 5,4 C 5,4 C 85 % 1030,9 hPa 0,0 l/m 9,6 km/h (2 Bft) W-SW 254 0 min 0,000 mm 0 W/m 3,1 C 2,8 C 20,9 km/h (4 Bft) 100 %
21.12.2014 16:41 5,4 C 5,4 C 5,4 C 84 % 1030,8 hPa 0,0 l/m 10,5 km/h (2 Bft) SW 225 0 min 0,000 mm 0 W/m 2,9 C 2,2 C 24,1 km/h (4 Bft) 99 %
21.12.2014 16:50 5,4 C 5,4 C 5,5 C 83 % 1030,8 hPa 0,0 l/m 10,7 km/h (2 Bft) SW 225 0 min 0,000 mm 0 W/m 2,7 C 2,0 C 20,9 km/h (4 Bft) 100 %
21.12.2014 17:00 5,5 C 5,4 C 5,5 C 83 % 1030,8 hPa 0,0 l/m 11,8 km/h (2 Bft) SW 232 0 min 0,000 mm 0 W/m 2,8 C 1,5 C 22,5 km/h (4 Bft) 100 %
21.12.2014 17:10 5,6 C 5,5 C 5,6 C 83 % 1030,6 hPa 0,0 l/m 14,0 km/h (3 Bft) W-SW 257 0 min 0,003 mm 0 W/m 2,9 C 0,3 C 29,0 km/h (5 Bft) 100 %
21.12.2014 17:20 5,6 C 5,6 C 5,6 C 84 % 1030,6 hPa 0,0 l/m 12,3 km/h (3 Bft) W 261 0 min 0,000 mm 0 W/m 3,1 C 1,3 C 24,1 km/h (4 Bft) 99 %
21.12.2014 17:30 5,4 C 5,4 C 5,6 C 84 % 1030,5 hPa 0,0 l/m 11,6 km/h (2 Bft) W-SW 238 0 min 0,000 mm 0 W/m 2,9 C 1,5 C 24,1 km/h (4 Bft) 100 %
21.12.2014 17:40 5,4 C 5,4 C 5,5 C 84 % 1030,5 hPa 0,0 l/m 10,9 km/h (2 Bft) W-SW 256 0 min 0,000 mm 0 W/m 2,9 C 1,9 C 24,1 km/h (4 Bft) 100 %
21.12.2014 17:50 5,3 C 5,3 C 5,4 C 86 % 1030,7 hPa 0,0 l/m 11,3 km/h (2 Bft) SW 234 0 min 0,000 mm 0 W/m 3,2 C 1,5 C 27,4 km/h (4 Bft) 91 %
21.12.2014 18:00 5,1 C 5,1 C 5,3 C 88 % 1030,4 hPa 0,0 l/m 9,5 km/h (2 Bft) S-SW 206 0 min 0,000 mm 0 W/m 3,3 C 2,5 C 20,9 km/h (4 Bft) 100 %
21.12.2014 18:10 4,9 C 4,9 C 5,1 C 88 % 1030,3 hPa 0,0 l/m 9,8 km/h (2 Bft) S-SW 202 0 min 0,025 mm 0 W/m 3,1 C 2,1 C 19,3 km/h (3 Bft) 99 %
21.12.2014 18:20 4,8 C 4,8 C 4,9 C 89 % 1030,2 hPa 0,0 l/m 9,7 km/h (2 Bft) S-SW 203 0 min 0,001 mm 0 W/m 3,1 C 2,1 C 19,3 km/h (3 Bft) 99 %
21.12.2014 18:30 4,8 C 4,7 C 4,8 C 88 % 1030,3 hPa 0,0 l/m 10,0 km/h (2 Bft) S-SW 205 0 min 0,000 mm 0 W/m 3,0 C 1,9 C 20,9 km/h (4 Bft) 100 %
21.12.2014 18:40 4,8 C 4,8 C 4,8 C 87 % 1030,3 hPa 0,0 l/m 9,3 km/h (2 Bft) SW 216 0 min 0,000 mm 0 W/m 2,8 C 2,4 C 20,9 km/h (4 Bft) 100 %
21.12.2014 18:50 4,9 C 4,8 C 4,9 C 87 % 1030,3 hPa 0,0 l/m 9,9 km/h (2 Bft) SW 229 0 min 0,000 mm 0 W/m 2,9 C 2,0 C 24,1 km/h (4 Bft) 91 %
21.12.2014 19:00 4,9 C 4,9 C 4,9 C 88 % 1030,3 hPa 0,0 l/m 9,8 km/h (2 Bft) SW 223 0 min 0,025 mm 0 W/m 3,1 C 2,1 C 22,5 km/h (4 Bft) 100 %
21.12.2014 19:10 4,8 C 4,8 C 4,9 C 89 % 1030,3 hPa 0,0 l/m 8,6 km/h (2 Bft) W-SW 249 0 min 0,000 mm 0 W/m 3,1 C 2,9 C 19,3 km/h (3 Bft) 100 %
21.12.2014 19:20 4,8 C 4,8 C 4,8 C 89 % 1030,3 hPa 0,0 l/m 6,9 km/h (2 Bft) W-SW 258 0 min 0,000 mm 0 W/m 3,1 C 4,4 C 16,1 km/h (3 Bft) 100 %
21.12.2014 19:30 4,7 C 4,7 C 4,8 C 89 % 1030,1 hPa 0,0 l/m 12,5 km/h (3 Bft) SW 227 0 min 0,000 mm 0 W/m 3,0 C 0,1 C 30,6 km/h (5 Bft) 100 %
21.12.2014 19:40 4,7 C 4,7 C 4,8 C 89 % 1030,1 hPa 0,0 l/m 10,9 km/h (2 Bft) S-SW 200 0 min 0,000 mm 0 W/m 3,0 C 1,1 C 24,1 km/h (4 Bft) 100 %
21.12.2014 19:50 4,7 C 4,7 C 4,7 C 89 % 1030,2 hPa 0,0 l/m 7,6 km/h (2 Bft) SW 223 0 min 0,000 mm 0 W/m 3,0 C 3,6 C 17,7 km/h (3 Bft) 100 %
21.12.2014 20:00 4,8 C 4,7 C 4,8 C 89 % 1030,2 hPa 0,0 l/m 8,2 km/h (2 Bft) SW 224 0 min 0,000 mm 0 W/m 3,1 C 3,2 C 14,5 km/h (3 Bft) 100 %
21.12.2014 20:10 4,9 C 4,8 C 4,9 C 88 % 1030,2 hPa 0,0 l/m 10,1 km/h (2 Bft) SW 234 0 min 0,000 mm 0 W/m 3,1 C 1,9 C 27,4 km/h (4 Bft) 100 %
21.12.2014 20:20 5,1 C 4,9 C 5,1 C 87 % 1030,2 hPa 0,0 l/m 12,1 km/h (2 Bft) W-SW 240 0 min 0,000 mm 0 W/m 3,1 C 0,8 C 29,0 km/h (5 Bft) 99 %
21.12.2014 20:30 5,1 C 5,1 C 5,1 C 87 % 1030,3 hPa 0,0 l/m 15,8 km/h (3 Bft) SW 221 0 min 0,000 mm 0 W/m 3,1 C -1,2 C 30,6 km/h (5 Bft) 100 %
21.12.2014 20:40 5,2 C 5,1 C 5,2 C 86 % 1030,1 hPa 0,0 l/m 16,0 km/h (3 Bft) SW 235 0 min 0,000 mm 0 W/m 3,1 C -1,2 C 37,0 km/h (5 Bft) 91 %
21.12.2014 20:50 5,3 C 5,2 C 5,3 C 86 % 1030,2 hPa 0,2 l/m 15,3 km/h (3 Bft) SW 221 0 min 0,000 mm 0 W/m 3,2 C -0,7 C 35,4 km/h (5 Bft) 99 %
21.12.2014 21:00 5,2 C 5,2 C 5,3 C 87 % 1030,1 hPa 0,0 l/m 15,1 km/h (3 Bft) W-SW 241 0 min 0,025 mm 0 W/m 3,2 C -0,7 C 27,4 km/h (4 Bft) 99 %
21.12.2014 21:10 5,1 C 5,1 C 5,2 C 88 % 1030,2 hPa 0,0 l/m 19,3 km/h (3 Bft) SW 225 0 min 0,000 mm 0 W/m 3,3 C -2,8 C 32,2 km/h (5 Bft) 97 %
21.12.2014 21:20 5,0 C 5,0 C 5,1 C 88 % 1030,2 hPa 0,0 l/m 14,5 km/h (3 Bft) SW 225 0 min 0,000 mm 0 W/m 3,2 C -0,7 C 30,6 km/h (5 Bft) 97 %
21.12.2014 21:30 4,9 C 4,9 C 5,0 C 89 % 1030,0 hPa 0,0 l/m 12,9 km/h (3 Bft) S-SW 202 0 min 0,000 mm 0 W/m 3,2 C 0,1 C 25,7 km/h (4 Bft) 98 %
21.12.2014 21:40 4,9 C 4,9 C 4,9 C 89 % 1029,9 hPa 0,0 l/m 14,5 km/h (3 Bft) SW 225 0 min 0,000 mm 0 W/m 3,2 C -0,8 C 27,4 km/h (4 Bft) 77 %
21.12.2014 21:50 4,9 C 4,9 C 4,9 C 89 % 1029,5 hPa 0,0 l/m 12,9 km/h (3 Bft) SW 225 0 min 0,000 mm 0 W/m 3,2 C 0,1 C 27,4 km/h (4 Bft) 98 %
21.12.2014 22:00 4,9 C 4,9 C 4,9 C 89 % 1029,3 hPa 0,0 l/m 11,3 km/h (2 Bft) SW 225 0 min 0,025 mm 0 W/m 3,2 C 1,1 C 24,1 km/h (4 Bft) 97 %
21.12.2014 22:10 4,9 C 4,9 C 4,9 C 89 % 1029,2 hPa 0,0 l/m 14,5 km/h (3 Bft) SW 225 0 min 0,000 mm 0 W/m 3,2 C -0,8 C 25,7 km/h (4 Bft) 98 %
21.12.2014 22:20 5,1 C 4,9 C 5,1 C 88 % 1029,2 hPa 0,0 l/m 14,5 km/h (3 Bft) SW 225 0 min 0,000 mm 0 W/m 3,3 C -0,5 C 35,4 km/h (5 Bft) 98 %
21.12.2014 22:30 5,1 C 5,0 C 5,1 C 87 % 1029,2 hPa 0,0 l/m 14,5 km/h (3 Bft) SW 225 0 min 0,000 mm 0 W/m 3,1 C -0,5 C 38,6 km/h (5 Bft) 99 %
21.12.2014 22:40 5,2 C 5,1 C 5,2 C 87 % 1029,0 hPa 0,0 l/m 14,5 km/h (3 Bft) SW 225 0 min 0,000 mm 0 W/m 3,2 C -0,4 C 29,0 km/h (5 Bft) 100 %
21.12.2014 22:50 5,3 C 5,2 C 5,3 C 86 % 1029,2 hPa 0,0 l/m 14,5 km/h (3 Bft) SW 225 0 min 0,000 mm 0 W/m 3,2 C -0,3 C 32,2 km/h (5 Bft) 99 %
21.12.2014 23:00 5,3 C 5,3 C 5,3 C 86 % 1029,1 hPa 0,0 l/m 12,9 km/h (3 Bft) SW 225 0 min 0,025 mm 0 W/m 3,2 C 0,6 C 29,0 km/h (5 Bft) 100 %
21.12.2014 23:10 5,3 C 5,3 C 5,3 C 86 % 1029,1 hPa 0,0 l/m 12,9 km/h (3 Bft) SW 225 0 min 0,000 mm 0 W/m 3,2 C 0,6 C 25,7 km/h (4 Bft) 99 %
21.12.2014 23:20 5,3 C 5,3 C 5,3 C 86 % 1028,9 hPa 0,0 l/m 14,5 km/h (3 Bft) S-SW 202 0 min 0,000 mm 0 W/m 3,2 C -0,3 C 27,4 km/h (4 Bft) 99 %
21.12.2014 23:30 5,3 C 5,3 C 5,3 C 86 % 1028,6 hPa 0,0 l/m 16,1 km/h (3 Bft) S-SW 202 0 min 0,000 mm 0 W/m 3,2 C -1,1 C 29,0 km/h (5 Bft) 100 %
21.12.2014 23:40 5,3 C 5,3 C 5,3 C 86 % 1028,4 hPa 0,0 l/m 12,9 km/h (3 Bft) S-SW 202 0 min 0,000 mm 0 W/m 3,2 C 0,6 C 27,4 km/h (4 Bft) 98 %
21.12.2014 23:50 5,3 C 5,3 C 5,3 C 85 % 1028,6 hPa 0,0 l/m 14,5 km/h (3 Bft) SW 225 0 min 0,000 mm 0 W/m 3,0 C -0,3 C 27,4 km/h (4 Bft) 89 %
_ Min-Zeit 08:40 08:40 08:50 16:50 00:00 - 02:30 - - - - - 08:40 21:10 03:50 21:40
Minimum _ 2,4 C 2,4 C 2,4 C 83 % 1028,2 hPa - 0,0 km/h (0 Bft) - - - - - 1,2 C -2,8 C 3,2 km/h (1 Bft) 77 %
_ Max-Zeit 15:20 15:30 15:20 12:40 10:20 00:00 21:10 - - 00:00 00:00 10:00 12:40 12:20 22:30 00:20
Maximum _ 5,6 C 5,6 C 5,6 C 96 % 1033,1 hPa 0,6 l/m 19,3 km/h
SW (3 Bft)
- - 0 min 0,025 mm 128 W/m 4,5 C 4,9 C 38,6 km/h
SW (5 Bft)
100 %
Durchschnitt _ 4,2 C 4,2 C 4,3 C 90 % 1030,9 hPa #3,4 l/m 8,8 km/h (2 Bft) SW - #0 min. #0,329 mm 67 W/m 2,7 C 1,9 C 20,0 km/h (4 Bft) 99 %
PRIVATE WETTERSTATION BILLIGHEIM-ALLFELD - www.neckar-odenwald-wetter.de - Holger Sonntag